Location: Oriwa
(40.7500°S, 175.3333°E)
Time: 09:40:09
(UTC+00:00)

ATLAS 3B R/B - Pass Details

Date: 03 February 2023
Orbit: 963 x 1231 km, 63.8° (Epoch: 16 March)

Event Time Altitude Azimuth Distance (km) Brightness Sun altitude
Rises 12:44:03 0° 223° (SW) 3,732 6.1 -32.7°
Reaches altitude 10° 12:46:56 10° 232° (SW) 2,753 5.2 -32.6°
Enters shadow 12:50:10 25° 256° (WSW) 1,872 4.0 -32.6°
